Location: Etzleinsberg
(48.4833°N, 14.0333°E)
Time: 17:32:11
(UTC+00:00)

Cosmos 1339 Rocket - Pass Details

Date: 07 June 2020
Orbit: 942 x 1005 km, 82.9° (Epoch: 12 July)

Event Time Altitude Azimuth Distance (km) Brightness Sun altitude
Rises 01:52:19 0° 350° (N) 3,624 8.1 -9.3°
Reaches altitude 10° 01:54:48 10° 350° (N) 2,679 7.4 -9.0°
Maximum altitude 02:00:56 87° 262° (W) 962 4.5 -8.4°
Drops below altitude 10° 02:07:06 10° 174° (S) 2,695 6.4 -7.7°
Sets 02:09:37 0° 174° (S) 3,647 7.1 -7.4°
